Regional Weather Roundup
Issued by NWS

Home | Current Version | Previous Version | Graphics & Text | Print | Product List | Glossary On
Versions: 1 2 3 4 5 6 7 8 9 10 11 12 13 14 15 16 17 18 19 20 21 22 23 24 25 26 27 28 29 30 31 32 33 34 35 36 37 38 39 40 41 42 43 44 45 46 47 48 49 50
000
ASUS43 KOAX 211910
RWRNE

WEATHER ROUNDUP FOR NEBRASKA
NATIONAL WEATHER SERVICE OMAHA NE
100 PM CST TUE FEB 21 2017

NOTES: SATELLITE DATA IS BEING USED TO AUGMENT CLOUD COVER ABOVE
       12000 FEET.
       "FAIR" INDICATES FEW OR NO CLOUDS BELOW 12,000 FEET WITH NO
       SIGNIFICANT WEATHER AND/OR OBSTRUCTIONS TO VISIBILITY.

  * THESE STATIONS DO NOT REPORT WEATHER SUCH AS RAIN...SNOW OR FOG.

NEZ001>004-019>022-054>056-212000-
NEBRASKA PANHANDLE

CITY           SKY/WX    TMP DP  RH WIND       PRES   REMARKS
SCOTTSBLUFF    SUNNY     71  23  16 W35G49    29.88F
ALLIANCE       SUNNY     71  26  18 W31G44    29.87F
CHADRON        SUNNY     70  31  23 W32G43    29.84F
KIMBALL        SUNNY     69  27  20 W29G44    29.97S
SIDNEY         SUNNY     72  21  14 W36G43    29.95F
$$

NEZ057>060-069>072-079>082-212000-
SOUTHWEST NEBRASKA

CITY           SKY/WX    TMP DP  RH WIND       PRES   REMARKS
NORTH PLATTE   SUNNY     74  30  19 W23G30    29.90F
IMPERIAL       SUNNY     73  23  15 W18G26    29.95F
LEXINGTON      SUNNY     71  25  17 SW10G17   29.91F
MCCOOK         SUNNY     74  29  19 W10       29.94F
OGALLALA       SUNNY     73  28  18 W21       29.91F
$$

NEZ005>010-023>029-035>040-094-212000-
NORTH CENTRAL NEBRASKA

CITY           SKY/WX    TMP DP  RH WIND       PRES   REMARKS
VALENTINE      SUNNY     72  31  22 W26G35    29.78F
AINSWORTH      SUNNY     71  35  26 W30G36    29.80F
BROKEN BOW     SUNNY     72  31  22 W20       29.87F
O`NEILL        SUNNY     74  30  20 W16G23    29.79F
ORD            SUNNY     74  23  15 SW20      29.83F
THEDFORD       SUNNY     73  33  23 W25G36    29.86F
$$

NEZ041-046>049-061>064-073>077-083>087-212000-
SOUTH CENTRAL NEBRASKA

CITY           SKY/WX    TMP DP  RH WIND       PRES   REMARKS
GRAND ISLAND   SUNNY     69  28  21 SW21G26   29.90F
AURORA         SUNNY     69  31  24 SW18      29.90F
HASTINGS       SUNNY     70  27  20 SW15G25   29.92F
HEBRON         SUNNY     70  29  22 SW15G22   29.94F
HOLDREGE       SUNNY     72  20  14 SW15G24   29.92F
KEARNEY *      SUNNY     70  27  19 SW17G25   29.91F
YORK           SUNNY     68  32  26 SW21      29.91F
$$

NEZ011>018-030>034-042>045-212000-
NORTHEAST NEBRASKA

CITY           SKY/WX    TMP DP  RH WIND       PRES   REMARKS
NORFOLK        SUNNY     68  29  23 SW29G38   29.83F
ALBION         SUNNY     71  21  15 SW20G28   29.85F
BLAIR          SUNNY     65  39  39 S17       29.91F
FREMONT        SUNNY     68  35  28 SW18      29.90F
TEKAMAH        SUNNY     68  38  33 SW23      29.89F
WAYNE          SUNNY     67  35  30 SW24G35   29.83F
$$

NEZ050>053-065>068-078-088>093-212000-
SOUTHEAST NEBRASKA

CITY           SKY/WX    TMP DP  RH WIND       PRES   REMARKS
LINCOLN        SUNNY     71  31  22 SW15      29.93F
OMAHA EPPLEY   SUNNY     66  39  37 S15       29.92F
BEATRICE       SUNNY     71  33  24 SW15      29.94F
FALLS CITY     SUNNY     64  41  42 W9        29.96F
NEBRASKA CITY  SUNNY     63  34  33 SW10      29.95F
PLATTSMOUTH    SUNNY     64  36  36 S13       29.94F
$$

NEZ044-045-051>053-067-212000-
OMAHA AREA

CITY           SKY/WX    TMP DP  RH WIND       PRES   REMARKS
OMAHA EPPLEY   SUNNY     66  39  37 S15       29.92F
BLAIR          SUNNY     65  39  39 S17       29.91F
FREMONT        SUNNY     68  35  28 SW18      29.90F
MILLARD        SUNNY     69  39  33 S9        29.92F
OFFUTT AFB     SUNNY     64  43  45 S9        29.93F
PLATTSMOUTH    SUNNY     64  36  36 S13       29.94F
WAHOO          FAIR      69  33  26 SW17G24   29.91F
$$



USA.gov is the U.S. government's official web portal to all federal, state and local government web resources and services.